[[{"header":{"parameterUnit":"m.s-1","parameterCategory":1,"la1":30.2991,"la2":30.254,"lo1":-89.0895,"lo2":-89.0444,"dy":0.0017,"dx":0.0017,"nx":28,"ny":28,"refTime":"2024-06-04T09:00:00:Z","depth":0,"parameterNumber":2,"parameterNumberName":"U-component_of_WINDS"},"data":[0,0,0,0,0,0,0,0,0,0,0,0,0,0,0,0,0,0,0,0,0,0,0,0,0,0,0,0,0,0,0,0,0,0,0,0,0,0,0,0,0,0,0,0,0,0,0,0,0,0,0,0,0,0,0,0,0,0,-1.0959,-1.0962,0,-1.1181,-1.1184,-1.1186,-1.1279,-1.1279,-1.1279,-1.1278,-1.1507,-1.1513,-1.152,0,0,0,0,0,0,0,0,0,0,0,0,0,-1.0619,-1.0625,-1.0959,-1.0962,-1.0965,-1.1181,-1.1184,-1.1187,-1.1279,-1.1279,-1.1278,-1.1278,-1.1505,-1.1513,-1.152,0,0,0,0,0,0,0,0,0,0,0,0,0,-1.0796,-1.0627,-1.0959,-1.1037,-1.1046,-1.118,-1.1184,-1.1188,-1.128,-1.1279,-1.1278,-1.1278,-1.1502,-1.1512,-1.1522,-1.1595,0,0,-1.1551,-1.1556,0,0,0,0,0,0,0,0,-1.0786,-1.0809,-1.1023,-1.1032,-1.1042,-1.1202,-1.1148,-1.1324,-1.128,-1.1191,-1.1278,-1.1277,-1.1406,-1.1424,-1.1467,-1.1606,-1.1615,-1.1552,-1.1558,-1.1562,-1.1565,0,0,0,0,0,0,0,-1.0774,-1.08,-1.1047,-1.1026,-1.1038,-1.1062,-1.1087,-1.1182,-1.13,-1.1199,-1.1206,-1.1231,-1.1411,-1.1457,-1.1473,-1.1619,-1.1552,-1.1561,-1.1567,-1.157,-1.1833,-1.1834,0,0,0,0,0,0,-1.0748,-1.0789,-1.104,-1.1054,-1.091,-1.1069,-1.1096,-1.1151,-1.1299,-1.1321,-1.1231,-1.1234,-1.1441,-1.1462,-1.1481,-1.1579,-1.1562,-1.1571,-1.1577,-1.1831,-1.1833,-1.1834,0,0,0,0,0,0,-1.074,-1.077,-1.1031,-1.0923,-1.0959,-1.1075,-1.1137,-1.1156,-1.1202,-1.1323,-1.1345,-1.1256,-1.1441,-1.1468,-1.1567,-1.1589,-1.1576,-1.1585,-1.183,-1.1832,-1.1833,-1.1774,0,0,0,0,0,0,-1.073,-1.0766,-1.0794,-1.0923,-1.0964,-1.1111,-1.1138,-1.1161,-1.1218,-1.1225,-1.1353,-1.1373,-1.1443,-1.1552,-1.1576,-1.1602,-1.1592,-1.1829,-1.1831,-1.1833,-1.1774,-1.1773,-1.1772,0,0,0,0,0,-1.0718,-1.0768,-1.0795,-1.0825,-1.1001,-1.1112,-1.1136,-1.1214,-1.122,-1.125,-1.1328,-1.1369,-1.1582,-1.1561,-1.159,-1.1618,-1.1828,-1.183,-1.1833,-1.1775,-1.1774,-1.1772,0,0,0,0,0,0,-1.0639,-1.0786,-1.0818,-1.0911,-1.0999,-1.1128,-1.1168,-1.121,-1.1297,-1.13,-1.1394,-1.1422,-1.1514,-1.1576,-1.155,-1.1699,-1.1708,-1.1717,-1.1655,-1.1654,-1.1653,-1.1637,-1.16,0,0,0,0,0,-1.0632,-1.0709,-1.0834,-1.0905,-1.0947,-1.1049,-1.1101,-1.1154,-1.1248,-1.1286,-1.1371,-1.1462,-1.155,-1.1605,-1.1693,-1.1784,-1.1815,-1.1818,-1.1817,-1.1815,-1.1822,-1.1878,-1.1881,-1.1842,-1.1842,-1.1842,0,0,-1.0619,-1.071,-1.0752,-1.0891,-1.0965,-1.1044,-1.108,-1.1161,-1.1221,-1.1298,-1.1398,-1.1464,-1.1571,-1.1667,-1.1714,-1.1722,-1.184,-1.1819,-1.1817,-1.1824,-1.1881,-1.1884,-1.1887,-1.1844,-1.1844,-1.1843,0,0,-1.0636,-1.0711,-1.078,-1.0853,-1.0965,-1.1033,-1.1049,-1.1173,-1.122,-1.1321,-1.1381,-1.1455,-1.1603,-1.1678,-1.1736,-1.1784,-1.1826,-1.181,-1.1805,-1.1858,-1.1861,-1.1864,-1.1884,-1.1889,-1.1816,-1.1816,-1.1816,0,-1.0606,-1.0727,-1.0809,-1.0889,-1.0949,-1.1023,-1.1094,-1.1162,-1.1296,-1.1336,-1.1344,-1.1533,-1.1611,-1.1727,-1.1739,-1.1782,-1.1806,-1.1796,-1.1854,-1.1858,-1.1862,-1.1882,-1.1889,-1.1813,-1.1814,-1.1814,-1.1814,0,-1.0686,-1.0769,-1.0811,-1.0939,-1.1004,-1.1078,-1.1174,-1.1231,-1.1279,-1.1347,-1.145,-1.1546,-1.1655,-1.1687,-1.1734,-1.1811,-1.1813,-1.1835,-1.1847,-1.1862,-1.1882,-1.189,-1.181,-1.1811,-1.1811,-1.1812,0,0,-1.0658,-1.0833,-1.0847,-1.0907,-1.1037,-1.1103,-1.1182,-1.1289,-1.1336,-1.1427,-1.1497,-1.1622,-1.1645,-1.1711,-1.1768,-1.1814,-1.185,-1.1832,-1.1836,-1.1834,-1.1942,-1.1925,-1.1932,-1.1878,-1.188,-1.1881,-1.1934,0,-1.0694,-1.0837,-1.0915,-1.1027,-1.1106,-1.1179,-1.1248,-1.1336,-1.1402,-1.148,-1.1554,-1.1642,-1.1665,-1.1705,-1.1754,-1.1834,-1.1873,-1.1832,-1.1946,-1.1949,-1.1917,-1.1942,-1.1924,-1.1969,-1.1942,-1.1943,-1.1944,0,-1.0754,-1.0844,-1.0964,-1.1087,-1.1123,-1.1184,-1.129,-1.1363,-1.1465,-1.151,-1.1584,-1.1641,-1.1729,-1.1734,-1.1858,-1.1829,-1.188,-1.1927,-1.1931,-1.1945,-1.1948,-1.1959,-1.1985,-1.1992,-1.1957,-1.1956,-1.1955,0,-1.0724,-1.0875,-1.0967,-1.1016,-1.1162,-1.1203,-1.1266,-1.1368,-1.1428,-1.1521,-1.1561,-1.1663,-1.1719,-1.1797,-1.1881,-1.1876,-1.1997,-1.2008,-1.2039,-1.2037,-1.2062,-1.2059,-1.2098,-1.2092,-1.2092,-1.2092,-1.2092,0,-1.0756,-1.0827,-1.0956,-1.1012,-1.1095,-1.1185,-1.1264,-1.1333,-1.1423,-1.1496,-1.1565,-1.1631,-1.1738,-1.1818,-1.1884,-1.1978,-1.2003,-1.2043,-1.206,-1.2038,-1.2033,-1.2073,-1.2073,-1.2094,-1.2094,-1.2093,-1.2093,0,-1.0736,-1.0825,-1.093,-1.106,-1.1094,-1.1149,-1.1262,-1.132,-1.1391,-1.1482,-1.1509,-1.162,-1.1719,-1.181,-1.1941,-1.1986,-1.2082,-1.2103,-1.2047,-1.2057,-1.2083,-1.2079,-1.2149,-1.2164,-1.2147,-1.2147,-1.2147,0,-1.0751,-1.0807,-1.0943,-1.0997,-1.1058,-1.1143,-1.1206,-1.1297,-1.136,-1.1482,-1.1527,-1.1631,-1.1719,-1.1873,-1.1967,-1.2068,-1.2093,-1.2111,-1.2109,-1.2085,-1.2096,-1.2092,-1.2099,-1.2109,-1.2109,-1.2109,-1.2109,0,-1.0769,-1.0811,-1.0897,-1.1,-1.1073,-1.1158,-1.1246,-1.1286,-1.1395,-1.1462,-1.1564,-1.1632,-1.1767,-1.187,-1.1983,-1.205,-1.2098,-1.2109,-1.2122,-1.21,-1.2066,-1.2086,-1.2045,-1.2107,-1.2107,-1.2107,-1.2107,-1.2107,-1.0768,-1.0822,-1.0927,-1.1023,-1.1099,-1.118,-1.1242,-1.1321,-1.1408,-1.1525,-1.1574,-1.1678,-1.1782,-1.1939,-1.2005,-1.2089,-1.2099,-1.2117,-1.2122,-1.2125,-1.2122,-1.2052,-1.2109,-1.211,-1.211,-1.211,-1.211,0,-1.0791,-1.0862,-1.0949,-1.107,-1.1146,-1.1185,-1.1285,-1.1346,-1.1436,-1.1529,-1.1615,-1.1734,-1.1835,-1.1937,-1.2044,-1.2092,-1.2117,-1.2117,-1.2115,-1.213,-1.2105,-1.2084,-1.2095,-1.2095,-1.2095,-1.2095,-1.2095,-1.2095,-1.0811,-1.0906,-1.0961,-1.1096,-1.1168,-1.127,-1.1324,-1.14,-1.1475,-1.1604,-1.1689,-1.1755,-1.1852,-1.1968,-1.2063,-1.2091,-1.2127,-1.2121,-1.2155,-1.2131,-1.2131,-1.2131,-1.2112,-1.2128,-1.2128,-1.2173,-1.2174,-1.2174]},{"header":{"parameterUnit":"m.s-1","parameterCategory":1,"la1":30.2991,"la2":30.254,"lo1":-89.0895,"lo2":-89.0444,"dy":0.0017,"dx":0.0017,"nx":28,"ny":28,"refTime":"2024-06-04T09:00:00:Z","depth":0,"parameterNumber":3,"parameterNumberName":"V-component_of_WINDS"},"data":[0,0,0,0,0,0,0,0,0,0,0,0,0,0,0,0,0,0,0,0,0,0,0,0,0,0,0,0,0,0,0,0,0,0,0,0,0,0,0,0,0,0,0,0,0,0,0,0,0,0,0,0,0,0,0,0,0,0,4.7569,4.7569,0,4.7491,4.749,4.7489,4.742,4.7419,4.7419,4.7418,4.7335,4.7334,4.7333,0,0,0,0,0,0,0,0,0,0,0,0,0,4.7658,4.7657,4.757,4.7569,4.7568,4.7491,4.749,4.7489,4.742,4.7419,4.7418,4.7418,4.7336,4.7334,4.7332,0,0,0,0,0,0,0,0,0,0,0,0,0,4.7604,4.7657,4.757,4.7524,4.7519,4.7491,4.749,4.7489,4.7421,4.7419,4.7418,4.7417,4.7337,4.7334,4.7332,4.7342,0,0,4.7326,4.7325,0,0,0,0,0,0,0,0,4.7607,4.7601,4.7532,4.7527,4.7522,4.7464,4.7491,4.7439,4.7421,4.7458,4.7418,4.7417,4.7379,4.7373,4.7361,4.7338,4.7335,4.7325,4.7324,4.7323,4.7322,0,0,0,0,0,0,0,4.7611,4.7604,4.7538,4.7531,4.7525,4.7507,4.7498,4.7481,4.7426,4.7455,4.7449,4.7441,4.7376,4.7363,4.7359,4.7334,4.7325,4.7323,4.7322,4.7321,4.7314,4.7315,0,0,0,0,0,0,4.7622,4.7607,4.7541,4.7536,4.7562,4.7506,4.7496,4.7484,4.7426,4.7416,4.7442,4.7438,4.7368,4.7361,4.7356,4.7362,4.7323,4.7321,4.732,4.7313,4.7315,4.7316,0,0,0,0,0,0,4.7624,4.7617,4.7544,4.757,4.756,4.7506,4.7493,4.7483,4.747,4.7417,4.7406,4.744,4.7367,4.7359,4.7346,4.7359,4.732,4.7318,4.7312,4.7314,4.7315,4.7378,0,0,0,0,0,0,4.7627,4.7618,4.7621,4.7571,4.7558,4.7536,4.7493,4.7482,4.7467,4.7461,4.7411,4.7402,4.7365,4.735,4.7344,4.7355,4.7316,4.731,4.7313,4.7315,4.7374,4.7381,4.7387,0,0,0,0,0,4.763,4.7642,4.7622,4.7614,4.7562,4.7537,4.753,4.7488,4.7468,4.7471,4.7437,4.7404,4.7359,4.7349,4.7342,4.7353,4.7309,4.7312,4.7315,4.7371,4.738,4.7387,0,0,0,0,0,0,4.7695,4.7634,4.7612,4.7607,4.7578,4.7526,4.7528,4.7498,4.7474,4.7469,4.7417,4.7407,4.74,4.7375,4.7365,4.7359,4.733,4.7331,4.7375,4.7383,4.7389,4.7395,4.7314,0,0,0,0,0,4.7709,4.7694,4.7642,4.7643,4.763,4.7582,4.7569,4.7539,4.7507,4.7494,4.7459,4.7428,4.7406,4.7393,4.7371,4.7371,4.7358,4.7375,4.7381,4.7387,4.7388,4.7385,4.7392,4.7324,4.7324,4.7324,0,0,4.7736,4.7702,4.7696,4.7655,4.7629,4.7615,4.7572,4.7558,4.7547,4.7491,4.7477,4.7451,4.7413,4.7406,4.7401,4.7385,4.7404,4.739,4.7395,4.7393,4.7389,4.7395,4.7401,4.7326,4.7326,4.7325,0,0,4.778,4.7753,4.775,4.7725,4.7686,4.7654,4.7654,4.7606,4.7587,4.7572,4.753,4.7516,4.7481,4.7455,4.7437,4.7472,4.744,4.7466,4.75,4.7498,4.7503,4.7508,4.7519,4.7524,4.7468,4.7468,4.7468,0,4.7819,4.7796,4.7753,4.7742,4.7725,4.7675,4.7672,4.7649,4.7605,4.7594,4.7577,4.7532,4.7503,4.7489,4.7498,4.7486,4.7483,4.7471,4.7506,4.751,4.7514,4.7524,4.7529,4.7472,4.7471,4.7471,4.747,0,4.7846,4.7831,4.7834,4.7793,4.7776,4.777,4.7724,4.7713,4.7685,4.7654,4.764,4.7604,4.7573,4.7568,4.754,4.755,4.7541,4.7516,4.7485,4.7524,4.7533,4.7537,4.7476,4.7475,4.7474,4.7473,0,0,4.7926,4.7862,4.7864,4.7844,4.7799,4.7786,4.7776,4.7747,4.7738,4.7709,4.7699,4.7671,4.7648,4.7628,4.7597,4.7596,4.7624,4.757,4.7569,4.7581,4.7633,4.7651,4.7656,4.7604,4.7604,4.7605,4.7635,0,4.7961,4.7942,4.7903,4.7896,4.7881,4.7834,4.7826,4.7797,4.7768,4.7751,4.772,4.77,4.7671,4.7659,4.7656,4.7622,4.7634,4.7619,4.7593,4.7593,4.7603,4.7661,4.768,4.771,4.7639,4.7639,4.764,0,4.7999,4.7974,4.7966,4.7921,4.7913,4.7906,4.7876,4.7861,4.7826,4.7806,4.7784,4.7751,4.7738,4.7711,4.7692,4.7683,4.767,4.7652,4.7652,4.7647,4.7618,4.7656,4.7719,4.7723,4.7645,4.7644,4.7644,0,4.8057,4.8021,4.8012,4.7997,4.7944,4.7941,4.7918,4.7883,4.7868,4.7841,4.7831,4.7804,4.7788,4.7767,4.7727,4.7711,4.7712,4.7682,4.7694,4.7695,4.7695,4.7695,4.7756,4.769,4.7689,4.7689,4.7689,0,4.8099,4.8096,4.8037,4.8031,4.8025,4.798,4.7976,4.7949,4.7919,4.7906,4.7864,4.7853,4.7801,4.7784,4.7752,4.7741,4.7735,4.7717,4.7709,4.772,4.7722,4.771,4.7707,4.7691,4.769,4.769,4.769,0,4.8162,4.8123,4.8109,4.8061,4.8049,4.8047,4.8005,4.7997,4.7967,4.7952,4.7946,4.7898,4.7876,4.7834,4.78,4.7778,4.7774,4.7759,4.7785,4.778,4.7794,4.7793,4.7848,4.7852,4.7784,4.7785,4.7786,0,4.8191,4.8187,4.8139,4.8128,4.8108,4.809,4.8075,4.8031,4.8016,4.7977,4.7974,4.7948,4.7926,4.7892,4.7854,4.7828,4.7812,4.7833,4.7808,4.7819,4.7811,4.7811,4.781,4.7838,4.7839,4.784,4.7841,0,4.8246,4.8227,4.8207,4.818,4.8162,4.8139,4.8113,4.8106,4.8056,4.8042,4.8019,4.8001,4.7967,4.7942,4.791,4.7886,4.7855,4.7849,4.785,4.7862,4.7876,4.7868,4.78,4.7848,4.7847,4.7847,4.7846,4.7846,4.8292,4.8286,4.8252,4.823,4.8206,4.8183,4.8173,4.8142,4.8123,4.8091,4.8067,4.8046,4.8011,4.7966,4.7944,4.7927,4.7912,4.7914,4.7914,4.7915,4.7919,4.7881,4.7921,4.7921,4.792,4.792,4.792,0,4.8344,4.8319,4.83,4.8266,4.8249,4.8222,4.8192,4.818,4.8162,4.8133,4.8112,4.8085,4.8061,4.8022,4.7994,4.7988,4.7973,4.7982,4.7981,4.7976,4.7935,4.7936,4.7995,4.7995,4.7995,4.7995,4.7995,4.7995,4.8368,4.8357,4.8334,4.8311,4.8286,4.8266,4.8251,4.8229,4.8206,4.8179,4.8159,4.8134,4.81,4.807,4.8047,4.8036,4.8027,4.8041,4.8025,4.7986,4.7979,4.7973,4.7974,4.804,4.804,4.8068,4.8068,4.8069]}]]